{"data":{"norad_id":56774,"intl_designator":"2023-078H","name":"STARLINK-6190","alt_names":[],"object_type":"PAYLOAD","status":"ACTIVE","operator":null,"country":"US","launch_date":"2023-05-31","launch_site_code":"AFWTR","launch_vehicle":null,"mission":null,"orbit_class":"UNKNOWN","rcs_meters":null,"size_class":null,"mass_kg":null,"dimensions":null,"purposes":["comms"],"wikipedia_slug":null,"has_3d_model":false,"image_url":null,"decayed_at":null,"tle_current":{"epoch":"2026-05-25T02:58:03.169056Z","epoch_age_seconds":61061,"freshness":"FRESH","line1":"1 56774U 23078H   26145.12364779 -.00000007  00000+0  72251-5 0  9995","line2":"2 56774  69.9987 171.8373 0003521 268.4122  91.6633 14.98330745163636","mean_motion":14.98330745,"eccentricity":0.0003521,"inclination_deg":69.9987,"raan_deg":171.8373,"arg_perigee_deg":268.4122,"mean_anomaly_deg":91.6633,"bstar":7.2251e-6,"rev_number":16363,"period_min":96.106951339372,"perigee_km":569.60642498861,"apogee_km":574.50074920004,"semimajor_km":6950.1905870943,"source":"CELESTRAK","updated_at":"2026-05-25T13:38:18.124583Z"}}}